When you browse on this site, cookies collect data to enhance your experience and personalize the content and advertising you see.
Visit our Privacy Policy to learn more. By continuing to use the site, you agree to this use of cookies and data.
  • In Lithuania
  • List of Countries
  • For 7 days
  • Water Temperature
  • Weather Map
  • Weather Widgets
  • user-avatar
    Login

    Hourly Weather Sydney

    Today, 19 August, Monday

    Time Temperature Precipitation Wind Pressure Humidity
    00:00 +15°C° 0.1 mm 8 mps 756 mmHg 60%
    01:00 +13°C° 0.1 mm 8 mps 757 mmHg 60%
    02:00 +12°C° 0 mm 8 mps 757 mmHg 55%
    03:00 +11°C° 0 mm 8 mps 758 mmHg 50%
    04:00 +11°C° 0 mm 7 mps 758 mmHg 45%
    05:00 +10°C° 0 mm 7 mps 759 mmHg 46%
    06:00 +9°C° 0 mm 7 mps 760 mmHg 47%
    07:00 +8°C° 0 mm 7 mps 760 mmHg 48%
    08:00 +10°C° 0 mm 7 mps 761 mmHg 43%
    09:00 +11°C° 0 mm 8 mps 761 mmHg 38%
    10:00 +13°C° 0 mm 9 mps 761 mmHg 33%
    11:00 +13°C° 0 mm 9 mps 761 mmHg 31%
    12:00 +15°C° 0 mm 9 mps 761 mmHg 28%
    13:00 +15°C° 0 mm 9 mps 761 mmHg 25%
    14:00 +15°C° 0 mm 9 mps 761 mmHg 24%
    15:00 +15°C° 0 mm 9 mps 761 mmHg 23%
    16:00 +13°C° 0 mm 9 mps 762 mmHg 22%
    17:00 +12°C° 0 mm 8 mps 763 mmHg 28%
    18:00 +10°C° 0 mm 8 mps 764 mmHg 34%
    19:00 +9°C° 0 mm 7 mps 765 mmHg 39%
    20:00 +7°C° 0 mm 8 mps 765 mmHg 43%
    21:00 +7°C° 0 mm 8 mps 766 mmHg 46%
    22:00 +6°C° 0 mm 8 mps 766 mmHg 50%
    23:00 +6°C° 0 mm 7 mps 766 mmHg 52%

    Tomorrow, 20 August, Tuesday

    Time Temperature Precipitation Wind Pressure Humidity
    00:00 +6°C° 0 mm 7 mps 766 mmHg 54%
    01:00 +5°C° 0 mm 7 mps 767 mmHg 56%
    02:00 +5°C° 0 mm 7 mps 766 mmHg 57%
    03:00 +5°C° 0 mm 6 mps 766 mmHg 58%
    04:00 +4°C° 0 mm 6 mps 766 mmHg 60%
    05:00 +5°C° 0 mm 5 mps 766 mmHg 61%
    06:00 +5°C° 0 mm 5 mps 766 mmHg 62%
    07:00 +3°C° 0 mm 5 mps 767 mmHg 64%
    08:00 +7°C° 0 mm 5 mps 766 mmHg 55%
    09:00 +10°C° 0 mm 6 mps 766 mmHg 47%
    10:00 +12°C° 0 mm 7 mps 766 mmHg 39%
    11:00 +14°C° 0 mm 7 mps 765 mmHg 36%
    12:00 +16°C° 0 mm 7 mps 765 mmHg 33%
    13:00 +17°C° 0 mm 8 mps 764 mmHg 31%
    14:00 +17°C° 0 mm 8 mps 764 mmHg 32%
    15:00 +16°C° 0 mm 8 mps 764 mmHg 33%
    16:00 +16°C° 0 mm 8 mps 763 mmHg 35%
    17:00 +15°C° 0 mm 8 mps 763 mmHg 40%
    18:00 +12°C° 0 mm 8 mps 764 mmHg 46%
    19:00 +10°C° 0 mm 8 mps 764 mmHg 51%
    20:00 +10°C° 0 mm 7 mps 764 mmHg 54%
    21:00 +9°C° 0 mm 7 mps 764 mmHg 56%
    22:00 +9°C° 0 mm 6 mps 764 mmHg 58%
    23:00 +9°C° 0 mm 6 mps 763 mmHg 60%

    Day after tomorrow, 21 August, Wednesday

    Time Temperature Precipitation Wind Pressure Humidity
    00:00 +8°C° 0 mm 6 mps 763 mmHg 61%
    01:00 +8°C° 0 mm 6 mps 762 mmHg 63%
    02:00 +8°C° 0 mm 6 mps 762 mmHg 65%
    03:00 +8°C° 0 mm 5 mps 761 mmHg 66%
    04:00 +7°C° 0 mm 5 mps 760 mmHg 68%
    05:00 +8°C° 0 mm 5 mps 760 mmHg 67%
    06:00 +8°C° 0 mm 5 mps 760 mmHg 65%
    07:00 +9°C° 0 mm 5 mps 760 mmHg 63%
    08:00 +12°C° 0 mm 5 mps 760 mmHg 56%
    09:00 +14°C° 0 mm 6 mps 759 mmHg 49%
    10:00 +16°C° 0 mm 6 mps 759 mmHg 42%
    11:00 +16°C° 0 mm 7 mps 759 mmHg 40%
    12:00 +17°C° 0 mm 8 mps 758 mmHg 39%
    13:00 +18°C° 0 mm 9 mps 757 mmHg 38%
    14:00 +18°C° 0 mm 10 mps 757 mmHg 38%
    15:00 +18°C° 0 mm 10 mps 757 mmHg 38%
    16:00 +18°C° 0 mm 10 mps 757 mmHg 38%
    17:00 +16°C° 0 mm 10 mps 758 mmHg 40%
    18:00 +14°C° 0 mm 10 mps 759 mmHg 43%
    19:00 +12°C° 0 mm 10 mps 759 mmHg 45%
    20:00 +12°C° 0 mm 9 mps 760 mmHg 45%
    21:00 +11°C° 0 mm 9 mps 760 mmHg 46%
    22:00 +10°C° 0 mm 8 mps 761 mmHg 46%
    23:00 +10°C° 0 mm 8 mps 761 mmHg 47%

    22 August, Thursday

    Time Temperature Precipitation Wind Pressure Humidity
    00:00 +9°C° 0 mm 7 mps 761 mmHg 48%
    01:00 +8°C° 0 mm 6 mps 761 mmHg 49%
    02:00 +8°C° 0 mm 6 mps 761 mmHg 51%
    03:00 +7°C° 0 mm 6 mps 761 mmHg 52%
    04:00 +7°C° 0 mm 6 mps 761 mmHg 53%
    05:00 +7°C° 0 mm 6 mps 761 mmHg 54%
    06:00 +5°C° 0 mm 6 mps 762 mmHg 55%
    07:00 +5°C° 0 mm 6 mps 762 mmHg 57%
    08:00 +8°C° 0 mm 6 mps 762 mmHg 50%
    09:00 +10°C° 0 mm 6 mps 761 mmHg 43%
    10:00 +14°C° 0 mm 6 mps 761 mmHg 36%
    11:00 +15°C° 0 mm 7 mps 761 mmHg 35%
    12:00 +16°C° 0 mm 7 mps 760 mmHg 34%
    13:00 +18°C° 0 mm 8 mps 760 mmHg 33%
    14:00 +17°C° 0 mm 7 mps 760 mmHg 36%
    15:00 +17°C° 0 mm 7 mps 761 mmHg 38%
    16:00 +17°C° 0 mm 7 mps 761 mmHg 41%
    17:00 +16°C° 0 mm 7 mps 762 mmHg 43%
    18:00 +15°C° 0 mm 7 mps 762 mmHg 46%
    19:00 +15°C° 0 mm 7 mps 763 mmHg 49%
    20:00 +14°C° 0.1 mm 7 mps 764 mmHg 53%
    21:00 +12°C° 0.1 mm 7 mps 764 mmHg 56%
    22:00 +11°C° 0.1 mm 6 mps 765 mmHg 60%
    23:00 +10°C° 0.1 mm 6 mps 765 mmHg 64%

    23 August, Friday

    Time Temperature Precipitation Wind Pressure Humidity
    00:00 +9°C° 0.1 mm 6 mps 765 mmHg 68%
    01:00 +8°C° 0.1 mm 6 mps 766 mmHg 72%
    02:00 +7°C° 0 mm 6 mps 766 mmHg 74%
    03:00 +7°C° 0 mm 5 mps 766 mmHg 76%
    04:00 +7°C° 0 mm 5 mps 766 mmHg 77%
    05:00 +6°C° 0 mm 5 mps 767 mmHg 77%
    06:00 +6°C° 0 mm 4 mps 767 mmHg 77%
    07:00 +7°C° 0 mm 3 mps 767 mmHg 77%
    08:00 +10°C° 0 mm 3 mps 767 mmHg 66%
    09:00 +12°C° 0 mm 3 mps 767 mmHg 54%
    10:00 +16°C° 0 mm 2 mps 767 mmHg 43%
    11:00 +17°C° 0 mm 2 mps 766 mmHg 38%
    12:00 +19°C° 0 mm 2 mps 766 mmHg 33%
    13:00 +21°C° 0 mm 1 mps 765 mmHg 27%
    14:00 +20°C° 0 mm 2 mps 765 mmHg 29%
    15:00 +20°C° 0 mm 3 mps 764 mmHg 30%
    16:00 +20°C° 0 mm 4 mps 764 mmHg 32%
    17:00 +17°C° 0 mm 5 mps 764 mmHg 43%
    18:00 +15°C° 0 mm 5 mps 764 mmHg 55%
    19:00 +13°C° 0 mm 5 mps 765 mmHg 66%
    20:00 +12°C° 0 mm 5 mps 765 mmHg 68%
    21:00 +10°C° 0 mm 5 mps 765 mmHg 70%
    22:00 +9°C° 0 mm 5 mps 764 mmHg 71%
    23:00 +9°C° 0 mm 5 mps 764 mmHg 72%

    24 August, Saturday

    Time Temperature Precipitation Wind Pressure Humidity
    00:00 +8°C° 0 mm 4 mps 763 mmHg 73%
    01:00 +8°C° 0 mm 3 mps 763 mmHg 73%
    02:00 +8°C° 0 mm 3 mps 763 mmHg 74%
    03:00 +8°C° 0 mm 3 mps 762 mmHg 75%
    04:00 +7°C° 0 mm 3 mps 762 mmHg 76%
    05:00 +8°C° 0 mm 3 mps 762 mmHg 75%
    06:00 +8°C° 0 mm 3 mps 762 mmHg 74%
    07:00 +7°C° 0 mm 4 mps 762 mmHg 73%
    08:00 +11°C° 0 mm 4 mps 761 mmHg 61%
    09:00 +14°C° 0 mm 4 mps 761 mmHg 49%
    10:00 +19°C° 0 mm 4 mps 760 mmHg 38%
    11:00 +20°C° 0 mm 4 mps 760 mmHg 33%
    12:00 +22°C° 0 mm 5 mps 759 mmHg 28%
    13:00 +25°C° 0 mm 5 mps 758 mmHg 23%
    14:00 +24°C° 0 mm 6 mps 758 mmHg 24%
    15:00 +23°C° 0 mm 6 mps 757 mmHg 25%
    16:00 +23°C° 0 mm 7 mps 757 mmHg 26%
    17:00 +21°C° 0 mm 6 mps 757 mmHg 31%
    18:00 +19°C° 0 mm 6 mps 757 mmHg 35%
    19:00 +17°C° 0 mm 5 mps 757 mmHg 40%
    20:00 +16°C° 0 mm 5 mps 757 mmHg 42%
    21:00 +15°C° 0 mm 6 mps 757 mmHg 44%
    22:00 +15°C° 0 mm 6 mps 757 mmHg 46%
    23:00 +14°C° 0 mm 6 mps 757 mmHg 50%
    Show more